Home > Weather > Southend-on-Sea > Past weeks

Flag for United Kingdom Weather for the Past 2 Weeks in Southend-on-Sea, England, United Kingdom

Now
63 °F

Sunny.


Feels Like: 63 °F
Forecast: 49 / 65 °F
Wind: 13 mph from South

Location: Southend Airport-On-Sea

Current Time: May 5, 2016 at 11:32:44 AM

Latest Report: May 5, 2016 at 10:50 AM


Visibility: 10 mi

Pressure: 30.18 "Hg

Humidity: 37%

Dew Point: 36 °F

Location of Southend-on-SeaLocation

Historic Weather in Southend-on-Sea — Graph

°F

Southend-on-Sea Temperature Yesterday

Maximum temperature yesterday: 63 °F (at 4:20 PM)
Minimum temperature yesterday: 36 °F (at 5:50 AM)
Average temperature yesterday: 53 °F

High & Low Weather Summary for the Past Weeks

 TemperatureHumidityPressure
High64 °F (May 1, 4:50 PM)93% (Apr 22, 7:20 PM)30.45 "Hg (Apr 22, 7:20 PM)
Low34 °F (May 1, 5:20 AM)23% (May 4, 5:50 PM)29.68 "Hg (Apr 25, 4:50 PM)
Average47 °F68%30.09 "Hg
* Reported Apr 20 10:20 AM — May 5 10:20 AM, Southend-on-Sea, Weather by CustomWeather, © 2016

Note: Actual official high and low records may vary slightly from our data, if they occured in-between our weather recording intervals... More about our weather records

Advertising

Southend-on-Sea Weather History for the Previous 24 Hours

Scroll right to see more
 ConditionsComfort  
Time TempWeatherWind HumidityBarometerVisibility
10:20 AM
Thu, May 5
61 °FSunny.13 mph42%30.18 "Hg10 mi
9:50 AM61 °FSunny.10 mph45%30.18 "Hg10 mi
9:20 AM57 °FSunny.10 mph55%30.18 "Hg10 mi
8:50 AM59 °FSunny.9 mph55%30.18 "Hg10 mi
8:20 AM55 °FPassing clouds.5 mph59%30.18 "HgN/A
7:50 AM54 °FSunny.3 mph67%30.18 "Hg10 mi
7:20 AM50 °FSunny.No wind76%30.18 "Hg10 mi
6:50 AM43 °FSunny.2 mph93%30.18 "Hg10 mi
6:20 AM39 °FSunny.2 mph93%30.18 "Hg10 mi
5:50 AM39 °FClear.2 mph93%30.18 "Hg10 mi
4:50 AM39 °FClear.2 mph93%30.18 "Hg10 mi
4:20 AM39 °FClear.2 mph93%30.21 "Hg10 mi
3:50 AM39 °FClear.2 mph93%30.21 "Hg10 mi
1:50 AM43 °FClear.2 mph81%30.24 "Hg10 mi
1:20 AM43 °FClear.2 mph81%30.24 "Hg10 mi
12:50 AM45 °FClear.2 mph87%30.24 "Hg10 mi
12:20 AM45 °FClear.2 mph81%30.24 "Hg10 mi
11:50 PM
Wed, May 4
48 °FClear.5 mph71%30.24 "Hg10 mi
11:20 PM48 °FClear.6 mph71%30.24 "Hg10 mi
10:50 PM50 °FClear.5 mph67%30.27 "Hg10 mi
10:20 PM50 °FClear.12 mph67%30.27 "Hg10 mi
9:50 PM52 °FClear.12 mph62%30.27 "Hg10 mi
9:20 PM52 °FSunny.12 mph62%30.27 "Hg10 mi
8:50 PM52 °FSunny.9 mph62%30.27 "Hg10 mi
8:20 PM54 °FSunny.8 mph44%30.24 "Hg10 mi
7:50 PM57 °FSunny.9 mph39%30.24 "Hg10 mi
7:20 PM57 °FSunny.10 mph39%30.24 "Hg10 mi
6:50 PM59 °FSunny.10 mph31%30.24 "Hg10 mi
5:50 PM61 °FSunny.13 mph23%30.27 "Hg10 mi
5:20 PM61 °FSunny.12 mph29%30.27 "Hg10 mi
4:50 PM61 °FSunny.14 mph31%30.27 "Hg10 mi
4:20 PM63 °FSunny.14 mph37%30.27 "Hg10 mi
3:50 PM61 °FSunny.14 mph39%30.30 "Hg10 mi
3:20 PM61 °FSunny.14 mph45%30.30 "Hg10 mi
2:50 PM61 °FPassing clouds.14 mph45%30.30 "HgN/A
2:20 PM61 °FPassing clouds.14 mph42%30.30 "HgN/A
1:50 PM61 °FPassing clouds.14 mph45%30.33 "HgN/A
1:20 PM61 °FPassing clouds.13 mph45%30.33 "HgN/A
12:50 PM61 °FPassing clouds.10 mph42%30.33 "HgN/A
12:20 PM61 °FPassing clouds.10 mph42%30.33 "HgN/A
11:50 AM59 °FPassing clouds.8 mph42%30.33 "HgN/A
11:20 AM59 °FPassing clouds.8 mph45%30.33 "HgN/A
Weather by CustomWeather, © 2016

See weather overviewHow to use our weather pages